Big Sky, USA 16 day weather forecast

Slopes altitude range 2070 m - 3400m

Number of lifts: 17 Pistes: 150km

In some cases the lift and piste totals shown are for the ski domain (e.g. Three Valleys) rather than individual resort (e.g. Courchevel)

Overview

The 16 day weather forecast is fully updated 4 times every day.

    • Wed 21 NOV 2018
    • Wed 21
    • -8C -7C
    • Thu 22 NOV 2018
    • Thu 22
    • -6C -5C
    • Fri 23 NOV 2018
    • Fri 23
    • -6C -4C
    • Sat 24 NOV 2018
    • Sat 24
    • -10C -3C
    • Sun 25 NOV 2018
    • Sun 25
    • -15C -14C
    • Mon 26 NOV 2018
    • Mon 26
    • -14C -13C
    • Tue 27 NOV 2018
    • Tue 27
    • -10C -8C
    • Wed 28 NOV 2018
    • Wed 28
    • -8C -6C
    • Thu 29 NOV 2018
    • Thu 29
    • -4C -3C
    • Fri 30 NOV 2018
    • Fri 30
    • -9C -8C
    • Sat 01 DEC 2018
    • Sat 01
    • -14C -9C
    • Sun 02 DEC 2018
    • Sun 02
    • -15C -9C
    • Mon 03 DEC 2018
    • Mon 03
    • -14C -4C
    • Tue 04 DEC 2018
    • Tue 04
    • -7C -5C
    • Wed 05 DEC 2018
    • Wed 05
    • -17C -11C
    • Thu 06 DEC 2018
    • Thu 06
    • -16C -10C

Date:

Time Type 0°C level Temp Chill Snow Cloud Speed Gust Dir Press
12:00 1236m -7°C -7_8 0cm 2% 8mph 9mph 1024mB
15:00 1226m -8°C -8_8 0cm 0% 8mph 9mph 1024mB
18:00 2373m 0°C 0_10 0cm 0% 10mph 15mph 1019mB
21:00 2566m 0°C 0_11 0cm 21% 11mph 19mph 1016mB
0:00 1671m -5°C -5_9 0cm 54% 9mph 11mph 1018mB
3:00 1572m -6°C -6_8 0cm 99% 8mph 12mph 1019mB
6:00 1612m -6°C -6_9 0cm 99% 9mph 13mph 1018mB
9:00 1576m -6°C -6_9 0cm 98% 9mph 14mph 1017mB
12:00 1608m -5°C -5_8 0cm 98% 8mph 17mph 1015mB
15:00 1553m -5°C -5_10 1cm 99% 10mph 19mph 1014mB
18:00 1839m -4°C -4_10 1cm 99% 10mph 17mph 1011mB
21:00 2003m -4°C -4_10 1cm 93% 10mph 17mph 1008mB
0:00 1745m -4°C -4_8 1cm 97% 8mph 15mph 1010mB
3:00 1488m -6°C -6_8 1cm 83% 8mph 16mph 1011mB
6:00 1619m -6°C -6_10 1cm 83% 10mph 23mph 1010mB
9:00 1733m -5°C -5_13 1cm 100% 13mph 28mph 1008mB
12:00 1435m -4°C -4_12 1cm 99% 12mph 28mph 1010mB
15:00 929m -7°C -7_4 1cm 95% 4mph 5mph 1014mB
18:00 1507m -6°C -6_11 1cm 97% 11mph 18mph 1012mB
21:00 1564m -6°C -6_12 1cm 100% 12mph 21mph 1007mB
0:00 1654m -6°C -6_13 2cm 100% 13mph 31mph 1004mB
3:00 1766m -5°C -5_11 1cm 97% 11mph 26mph 1001mB
6:00 1884m -5°C -5_10 2cm 99% 10mph 34mph 1000mB
9:00 1412m -7°C -7_9 1cm 99% 9mph 24mph 1003mB
12:00 916m -3°C -3_6 1cm 98% 6mph 12mph 1006mB
15:00 1153m -8°C -8_8 1cm 100% 8mph 18mph 1011mB
18:00 1394m -7°C -7_11 2cm 99% 11mph 17mph 1016mB
21:00 1544m -7°C -7_8 1cm 74% 8mph 14mph 1018mB
0:00 969m -9°C -9_4 1cm 66% 4mph 5mph 1022mB
3:00 575m -12°C -12_3 1cm 45% 3mph 3mph 1026mB
6:00 246m -14°C -14_4 1cm 31% 4mph 4mph 1028mB
9:00 122m -15°C -15_6 0cm 49% 6mph 7mph 1029mB
12:00 283m -14°C -14_8 0cm 72% 8mph 11mph 1029mB
15:00 356m -13°C -13_8 0cm 79% 8mph 14mph 1030mB
18:00 1110m -8°C -8_9 1cm 88% 9mph 14mph 1026mB
21:00 1337m -8°C -8_8 1cm 95% 8mph 11mph 1024mB
0:00 1039m -9°C -9_5 1cm 97% 5mph 7mph 1026mB
3:00 483m -13°C -13_4 1cm 71% 4mph 5mph 1030mB
6:00 301m -14°C -14_4 1cm 56% 4mph 5mph 1032mB
9:00 329m -14°C -14_6 0cm 42% 6mph 7mph 1033mB
12:00 362m -13°C -13_6 0cm 46% 6mph 7mph 1034mB
15:00 353m -13°C -13_7 0cm 55% 7mph 8mph 1033mB
18:00 1345m -7°C -7_7 0cm 74% 7mph 10mph 1029mB
21:00 1748m -7°C -7_7 0cm 86% 7mph 9mph 1025mB
0:00 900m -10°C -10_6 0cm 82% 6mph 8mph 1027mB
3:00 630m -12°C -12_7 0cm 69% 7mph 8mph 1029mB
6:00 1022m -12°C -12_6 0cm 82% 6mph 9mph 1029mB
9:00 1079m -10°C -10_8 1cm 99% 8mph 11mph 1028mB
12:00 930m -8°C -8_9 1cm 98% 9mph 13mph 1027mB
15:00 970m -9°C -9_10 0cm 90% 10mph 16mph 1026mB
18:00 1657m -5°C -5_11 0cm 90% 11mph 17mph 1021mB
21:00 1876m -5°C -5_13 0cm 100% 13mph 20mph 1016mB
0:00 1315m -7°C -7_10 1cm 95% 10mph 17mph 1018mB
3:00 1247m -8°C -8_9 1cm 94% 9mph 15mph 1020mB
6:00 1232m -8°C -8_9 1cm 96% 9mph 15mph 1020mB
9:00 1342m -8°C -8_7 1cm 99% 7mph 11mph 1019mB
12:00 1456m -6°C -6_7 1cm 99% 7mph 10mph 1017mB
15:00 1488m -6°C -6_8 1cm 98% 8mph 14mph 1016mB
18:00 1942m -3°C -3_11 2cm 98% 11mph 18mph 1011mB
21:00 2162m -3°C -3_11 2cm 100% 11mph 27mph 1005mB
0:00 1986m -3°C -3_11 3cm 100% 11mph 27mph 1004mB
3:00 1925m -4°C -4_10 2cm 100% 10mph 24mph 1002mB
6:00 1956m -4°C -4_11 4cm 100% 11mph 31mph 1000mB
9:00 1918m -4°C -4_7 2cm 100% 7mph 15mph 1000mB
12:00 1855m -3°C -3_11 4cm 100% 11mph 25mph 1003mB
15:00 1245m -4°C -4_4 1cm 100% 4mph 5mph 1009mB
18:00 1656m -4°C -4_8 1cm 71% 8mph 19mph 1009mB
21:00 1540m -6°C -6_10 0cm 83% 10mph 18mph 1007mB
0:00 1146m -9°C -9_9 0cm 91% 9mph 22mph 1010mB
3:00 1043m -9°C -9_8 0cm 98% 8mph 18mph 1011mB
6:00 1063m -9°C -9_8 1cm 98% 8mph 21mph 1009mB
9:00 1153m -9°C -9_6 1cm 100% 6mph 12mph 1007mB
12:00 1086m -8°C -8_5 2cm 100% 5mph 11mph 1005mB
15:00 1169m -8°C -8_5 1cm 100% 5mph 10mph 1005mB
18:00 1484m -6°C -6_5 2cm 100% 5mph 8mph 1005mB
21:00 1612m -6°C -6_6 1cm 97% 6mph 10mph 1004mB
0:00 1150m -8°C -8_6 1cm 99% 6mph 11mph 1007mB
3:00 769m -11°C -11_6 1cm 97% 6mph 9mph 1009mB
6:00 624m -12°C -12_5 1cm 98% 5mph 8mph 1010mB
Afternoon 0.00520833mm 0 1039m -9°C -9_6 0cm 80% 6mph 9mph 1012mB
Morning 0.166667mm 0 73m -15°C -15_7 0cm 64% 7mph 10mph 1023mB
Afternoon 0.197917mm 0 986m -9°C -9_10 0cm 62% 10mph 17mph 1024mB
Morning 0.270833mm 0 204m -14°C -14_7 0cm 48% 7mph 10mph 1026mB
Afternoon 0.0104167mm 0 1792m -4°C -4_6 0cm 70% 6mph 10mph 1013mB
Morning 0.484375mm 0 1640m -5°C -5_5 4cm 100% 5mph 10mph 1009mB
Afternoon 0.328125mm 0 1426m -5°C -5_7 3cm 99% 7mph 10mph 1014mB
Morning 0.0572917mm 0.0625 0m -18°C -18_5 0cm 47% 5mph 6mph 1027mB
Afternoon 0.0833333mm 0 737m -11°C -11_14 0cm 44% 14mph 25mph 1022mB
Morning 0.885417mm 0 620m -12°C -12_8 7cm 90% 8mph 15mph 1023mB
Afternoon 0.807292mm 0 863m -10°C -10_4 6cm 74% 4mph 6mph 1026mB
Morning 0.411458mm 0 22m -16°C -16_9 0cm 27% 9mph 14mph 1028mB

16 day outlook at a glance

Forecast issued: 21/11/2018 14:29:28

Chat

Your comments and questions. In a resort? Let us know what it's like!


Characters left 250

For terms and conditions see Readers Comments on the Cookie and privacy policy page.